Time,TemperatureF,DewpointF,PressureIn,WindDirection,WindDirectionDegrees,WindSpeedMPH,WindSpeedGustMPH,Humidity,HourlyPrecipIn,Conditions,Clouds,dailyrainin,SoftwareType,DateUTC
2013-03-30 00:02:00,51.0,-99.9,30.08,WSW,240,4.0,-999.0,-999,-99.99,,,-99.99,,2013-03-30 07:02:00,
2013-03-30 00:52:00,51.0,-99.9,30.09,SW,230,7.0,-999.0,-999,-99.99,,,-99.99,,2013-03-30 07:52:00,
2013-03-30 01:02:00,51.0,-99.9,30.09,SW,230,7.0,-999.0,-999,-99.99,,,-99.99,,2013-03-30 08:02:00,
2013-03-30 01:03:00,51.0,-99.9,30.09,WSW,250,7.0,-999.0,-999,-99.99,,,-99.99,,2013-03-30 08:03:00,
2013-03-30 01:53:00,51.0,-99.9,30.09,WSW,250,7.0,-999.0,-999,-99.99,,,-99.99,,2013-03-30 08:53:00,
2013-03-30 02:03:00,51.0,-99.9,30.07,SSE,160,2.0,-999.0,-999,-99.99,,,-99.99,,2013-03-30 09:03:00,
2013-03-30 02:54:00,51.0,-99.9,30.07,SSE,160,2.0,-999.0,-999,-99.99,,,-99.99,,2013-03-30 09:54:00,
2013-03-30 03:03:00,51.0,-99.9,30.09,SW,220,9.0,-999.0,-999,-99.99,,,-99.99,,2013-03-30 10:03:00,
2013-03-30 03:53:00,51.0,-99.9,30.09,SW,220,9.0,-999.0,-999,-99.99,,,-99.99,,2013-03-30 10:53:00,
2013-03-30 04:03:00,52.0,-99.9,30.08,South,180,9.0,-999.0,-999,-99.99,,,-99.99,,2013-03-30 11:03:00,
2013-03-30 04:53:00,52.0,-99.9,30.08,South,180,9.0,-999.0,-999,-99.99,,,-99.99,,2013-03-30 11:53:00,
2013-03-30 05:53:00,51.0,-99.9,30.06,SSW,210,9.0,-999.0,-999,-99.99,,,-99.99,,2013-03-30 12:53:00,
2013-03-30 06:02:00,51.0,-99.9,30.06,SSW,210,9.0,-999.0,-999,-99.99,,,-99.99,,2013-03-30 13:02:00,
2013-03-30 06:03:00,51.0,-99.9,30.07,SSW,210,9.0,-999.0,-999,-99.99,,,-99.99,,2013-03-30 13:03:00,
2013-03-30 06:53:00,51.0,-99.9,30.07,SSW,210,9.0,-999.0,-999,-99.99,,,-99.99,,2013-03-30 13:53:00,
2013-03-30 07:03:00,51.0,-99.9,30.09,SSW,210,13.0,-999.0,-999,-99.99,,,-99.99,,2013-03-30 14:03:00,
2013-03-30 07:53:00,51.0,-99.9,30.09,SSW,210,13.0,-999.0,-999,-99.99,,,-99.99,,2013-03-30 14:53:00,
2013-03-30 09:03:00,51.0,-99.9,30.11,SW,220,16.0,-999.0,-999,-99.99,,,-99.99,,2013-03-30 16:03:00,
2013-03-30 09:53:00,51.0,-99.9,30.11,SW,220,16.0,-999.0,-999,-99.99,,,-99.99,,2013-03-30 16:53:00,
2013-03-30 10:03:00,52.0,-99.9,30.10,SSW,210,13.0,-999.0,-999,-99.99,,,-99.99,,2013-03-30 17:03:00,
2013-03-30 10:53:00,52.0,-99.9,30.10,SSW,210,13.0,-999.0,-999,-99.99,,,-99.99,,2013-03-30 17:53:00,
2013-03-30 11:03:00,53.0,-99.9,30.10,South,170,9.0,-999.0,-999,-99.99,,,-99.99,,2013-03-30 18:03:00,
2013-03-30 12:53:00,54.0,-99.9,30.08,SE,130,9.0,-999.0,-999,-99.99,,,-99.99,,2013-03-30 19:53:00,
2013-03-30 13:02:00,54.0,-99.9,30.08,SE,130,9.0,-999.0,-999,-99.99,,,-99.99,,2013-03-30 20:02:00,
2013-03-30 13:03:00,54.0,-99.9,30.09,ESE,120,4.0,-999.0,-999,-99.99,,,-99.99,,2013-03-30 20:03:00,
2013-03-30 13:53:00,54.0,-99.9,30.09,ESE,120,4.0,-999.0,-999,-99.99,,,-99.99,,2013-03-30 20:53:00,
2013-03-30 14:03:00,56.0,-99.9,30.09,WNW,290,2.0,-999.0,-999,-99.99,,,-99.99,,2013-03-30 21:03:00,
2013-03-30 14:53:00,56.0,-99.9,30.09,WNW,290,2.0,-999.0,-999,-99.99,,,-99.99,,2013-03-30 21:53:00,
2013-03-30 15:03:00,56.0,-99.9,30.05,West,270,7.0,-999.0,-999,-99.99,,,-99.99,,2013-03-30 22:03:00,
2013-03-30 15:54:00,56.0,-99.9,30.05,West,270,7.0,-999.0,-999,-99.99,,,-99.99,,2013-03-30 22:54:00,